Location: Unspecified
(42.3650°N, 71.1030°W)
Time: 15:56:22
(UTC+00:00)

Transit 2A - Pass Details

Date: 26 June 2024
Orbit: 591 x 960 km, 66.7° (Epoch: 16 July)

Event Time Altitude Azimuth Distance (km) Brightness Sun altitude
Rises 03:16:53 0° 332° (NNW) 3,539 11.0 -21.1°
Reaches altitude 10° 03:19:25 10° 336° (NNW) 2,632 9.9 -21.2°
Maximum altitude 03:25:31 57° 55° (NE) 1,117 6.8 -21.6°
Enters shadow 03:28:22 32° 119° (ESE) 1,581 7.2 -21.8°
